Station SDHN4 - 8531680 - Sandy Hook, NJ Image indicating link to RSS feed of recent meteorological observations for station SDHN4


Conditions at SDHN4 as of
(9:18 pm EDT on 04/15/2024)
0118 GMT on 04/16/2024:
     

Click on the graph icon in the table below to see a time series plot of the last five days of that observation.

5-day plot - Wind Direction Wind Direction (WDIR): S ( 170 deg true )
5-day plot - Wind Speed Wind Speed (WSPD): 1.0 kts
5-day plot - Wind Gust Wind Gust (GST): 2.9 kts
5-day plot - Atmospheric Pressure Atmospheric Pressure (PRES):29.88 in
5-day plot - Air Temperature Air Temperature (ATMP): 65.1 °F
5-day plot - Water Temperature Water Temperature (WTMP): 53.8 °F
5-day plot - Wind Speed at 10 Meters Wind Speed at 10 meters (WSPD10M): 1.9 kts
5-day plot - Wind Speed at 20 Meters Wind Speed at 20 meters (WSPD20M): 1.9 kts
5-day plot -  Wind Speed, Wind Gust and Atmospheric Pressure Combined plot of Wind Speed, Gust, and Air Pressure
NOS Water Level Observation Network Water Level
Previous observations
TIME
(EDT)
5-day plot - Wind Direction
WDIR
 
5-day plot - Wind Speed
WSPD
kts
5-day plot - Wind Gust
GST
kts
5-day plot - Wave Height
WVHT
ft
5-day plot - Dominant Wave Period
DPD
sec
5-day plot - Average Wave Period
APD
sec
5-day plot - Mean Wave Direction
MWD
 
5-day plot - Atmospheric Pressure
PRES
in
5-day plot - Pressure Tendency
PTDY
in
5-day plot - Air Temperature
ATMP
°F
5-day plot - Water Temperature
WTMP
°F
5-day plot - Dew Point
DEWP
°F
5-day plot - Salinity
SAL
psu
5-day plot - Visibility
VIS
nmi
5-day plot - Tide (above MLLW)
TIDE
ft
2024-04-15 09:12 pm S 2.9 4.1----29.88- 65.8 53.8----
2024-04-15 09:06 pm S 1.9 2.9----29.87- 66.2 53.8----
2024-04-15 09:00 pmSSE 1.9 2.9----29.87+0.05- 53.8----
2024-04-15 08:54 pm S 2.9 2.9----29.87-- 53.8----
2024-04-15 08:48 pm S 2.9 2.9----29.87- 65.5 53.8----
2024-04-15 08:42 pm S 2.9 5.1----29.86- 65.3 53.8----
2024-04-15 08:36 pm S 4.1 6.0----29.86- 65.1 53.8----
2024-04-15 08:30 pm S 7.0 8.0----29.86- 65.3 53.8----
2024-04-15 08:24 pm S 5.1 6.0----29.85- 64.4 53.8----
2024-04-15 08:18 pm S 5.1 5.1----29.85-- 53.6----
2024-04-15 08:12 pm S 4.1 5.1----29.85-- 53.4----
2024-04-15 08:06 pm S 4.1 6.0----29.85-- 53.4----
2024-04-15 08:00 pm S 6.0 8.0----29.84+0.04 62.8 53.2----
2024-04-15 07:54 pm S 8.0 9.9----29.84- 61.5 53.2----
2024-04-15 07:48 pm S 8.9 11.1----29.84- 60.3 53.2----
2024-04-15 07:42 pm S 5.1 7.0----29.83- 59.9 53.2----
2024-04-15 07:36 pm SE 1.9 4.1----29.83- 59.9 53.4----
2024-04-15 07:30 pmESE 2.9 4.1----29.83- 60.6 53.4----
2024-04-15 07:24 pm SE 4.1 5.1----29.82- 61.3 53.4----
2024-04-15 07:00 pmSSE 4.1 5.1----29.81+0.00 62.6 53.6----
2024-04-15 06:54 pm SE 2.9 5.1----29.81- 63.3 53.6----
2024-04-15 06:48 pm SE 5.1 5.1----29.81- 63.5 53.6----
2024-04-15 06:42 pm SE 5.1 6.0----29.81- 64.6 53.6----
2024-04-15 06:36 pm SE 1.9 5.1----29.81- 65.3 53.6----
2024-04-15 06:30 pm SE 5.1 6.0----29.81-- 53.8----
2024-04-15 06:24 pm SE 5.1 7.0----29.82-- 54.0----
2024-04-15 06:18 pm SE 5.1 8.0----29.82- 65.1 54.0----
2024-04-15 06:12 pmESE 6.0 7.0----29.82- 65.1 53.8----
2024-04-15 06:06 pmESE 4.1 7.0----29.82- 64.4 53.6----
2024-04-15 06:00 pm SE 5.1 8.9----29.82+0.00 63.7 53.6----
2024-04-15 05:54 pm SE 8.9 11.1----29.82- 63.0 53.6----
2024-04-15 05:48 pm SE 8.0 9.9----29.82- 63.7 53.4----
2024-04-15 05:42 pm SE 7.0 9.9----29.82- 63.5 53.4----
2024-04-15 05:36 pmSSE 7.0 8.9----29.82- 63.7 53.2----
2024-04-15 05:30 pmSSE 6.0 7.0----29.82- 64.9 53.1----
2024-04-15 05:24 pm SE 5.1 6.0----29.82- 65.7 52.9----
2024-04-15 05:18 pm SE 5.1 8.9------ 66.0 52.7----
2024-04-15 05:12 pmSSE 8.0 9.9------ 66.2 52.5----
2024-04-15 05:06 pmSSE 8.0 8.9------ 66.4 52.3----
2024-04-15 05:00 pm SE 5.1 8.0----29.81-0.02 67.6 52.2----
2024-04-15 04:54 pmSSE 7.0 8.0----29.81- 66.9 52.0----
2024-04-15 04:48 pmSSE 6.0 7.0----29.81- 68.2 52.0----
2024-04-15 04:42 pmSSE 5.1 7.0----29.81- 67.8 52.0----
2024-04-15 04:36 pmSSE 6.0 9.9----29.81- 69.1 52.0----
2024-04-15 04:30 pm S 8.9 11.1----29.81- 67.6 52.0----
2024-04-15 04:24 pm S 2.9 6.0----29.81- 69.6 52.0----
2024-04-15 04:18 pm S 6.0 7.0----29.81- 69.4 52.0----
2024-04-15 04:12 pmSSE 8.0 11.1----29.81- 67.5 52.0----
2024-04-15 04:06 pm S 1.9 5.1----29.81- 69.4 52.0----
2024-04-15 04:00 pmSSE 5.1 9.9----29.81-0.02 68.0 52.0----
2024-04-15 03:54 pmSSE 8.9 11.1----29.81- 66.4 52.0----
2024-04-15 03:48 pm S 5.1 8.0----29.81- 68.2 52.0----
2024-04-15 03:42 pm S 7.0 8.9----29.81- 68.4 51.8----
2024-04-15 03:36 pm S 5.1 11.1----29.81- 69.3 51.8----
2024-04-15 03:30 pm S 7.0 9.9----29.81- 67.1 51.8----
2024-04-15 03:24 pmSSE 7.0 11.1----29.81- 69.3 51.8----
2024-04-15 03:18 pmSSE 9.9 13.0----29.81- 68.5 51.8----
2024-04-15 03:12 pmSSE 12.0 15.0----29.82- 68.7 51.8----
2024-04-15 03:06 pm S 8.9 13.0----29.82- 66.7 51.8----
2024-04-15 03:00 pmSSE 11.1 15.0----29.82-0.03 68.4 51.8----
2024-04-15 02:54 pm S 13.0 17.1----29.82- 67.6 51.8----
2024-04-15 02:48 pm S 11.1 15.0----29.82- 68.5 51.8----
2024-04-15 02:42 pm S 12.0 15.0----29.82- 68.0 51.8----
2024-04-15 02:36 pmSSE 4.1 11.1----29.82- 71.6 51.8----
2024-04-15 02:30 pmSSE 9.9 13.0----29.82- 69.3 51.8----
2024-04-15 02:24 pm S 8.9 14.0----29.82- 67.5 51.8----
2024-04-15 02:18 pmSSE 8.0 8.9----29.82- 68.7 51.8----
2024-04-15 02:12 pm S 4.1 5.1----29.82- 70.7 51.8----
2024-04-15 02:06 pm S 4.1 9.9----29.83- 70.2 51.8----
2024-04-15 02:00 pm S 6.0 9.9----29.83-0.04 69.4 51.8----
2024-04-15 01:54 pm S 5.1 7.0----29.83- 69.8 51.8----
2024-04-15 01:48 pmSSE 6.0 7.0----29.83- 70.0 51.8----
2024-04-15 01:42 pmSSW 4.1 5.1----29.83- 70.3 51.8----
2024-04-15 01:36 pmSSW 5.1 8.9----29.83- 70.5 52.0----
2024-04-15 01:30 pmWNW 8.9 9.9----29.83- 73.8 52.0----
2024-04-15 01:24 pm NW 8.0 9.9----29.83- 74.3 52.0----
2024-04-15 01:18 pm NW 8.0 9.9----29.83- 74.1 52.0----
2024-04-15 01:12 pm NW 7.0 8.9----29.83- 74.1 52.0----
2024-04-15 01:06 pm NW 8.0 9.9----29.83- 74.1 52.0----
2024-04-15 01:00 pm NW 8.9 9.9----29.83-0.03 73.8 52.0----
2024-04-15 12:54 pm NW 7.0 9.9----29.83- 73.2 52.0----
2024-04-15 12:48 pmWNW 7.0 8.0----29.83- 72.7 52.0----
2024-04-15 12:42 pmWNW 6.0 7.0----29.83- 72.1 52.0----
2024-04-15 12:36 pmWNW 5.1 7.0----29.83- 70.3 52.0----
2024-04-15 12:30 pmWNW 5.1 5.1----29.83- 70.0 52.0----
2024-04-15 12:24 pm W 2.9 4.1----29.83- 68.9 52.0----
2024-04-15 12:18 pm W 2.9 4.1----29.84- 68.2 52.0----
2024-04-15 12:12 pm W 1.9 5.1----29.84- 68.5 52.0----
2024-04-15 12:06 pm W 4.1 5.1----29.84- 68.0 52.0----
2024-04-15 12:00 pm SW 2.9 4.1----29.85+0.01 66.6 52.0----
2024-04-15 11:54 am SW 2.9 2.9----29.85- 66.2 52.0----
2024-04-15 11:48 am SW 2.9 4.1----29.85- 65.8 52.0----
2024-04-15 11:42 am SW 1.9 2.9----29.85- 66.6 52.0----
2024-04-15 11:36 am W 1.9 4.1----29.85- 66.2 51.8----
2024-04-15 11:30 amWSW 4.1 4.1----29.85- 64.6 51.8----
2024-04-15 11:24 amWSW 2.9 4.1----29.86- 63.3 51.8----
2024-04-15 11:18 am SW 2.9 4.1----29.86- 62.6 51.8----
2024-04-15 11:12 amWSW 4.1 5.1----29.86- 63.1 51.8----
2024-04-15 11:06 amWSW 5.1 6.0----29.86- 64.4 51.8----
2024-04-15 11:00 am SW 5.1 6.0----29.86+0.05 65.1 51.8----
2024-04-15 10:54 amWSW 6.0 6.0----29.86- 64.9 51.8----
2024-04-15 10:48 amWSW 6.0 7.0----29.86- 65.1 51.8----
2024-04-15 10:42 amWSW 7.0 8.0----29.86- 65.1 51.8----
2024-04-15 10:36 amWSW 8.0 9.9----29.86- 64.8 51.8----
2024-04-15 10:30 amWSW 9.9 9.9----29.86-- 51.8----
2024-04-15 10:24 amWSW 11.1 11.1----29.86-- 51.8----
2024-04-15 10:18 am W 11.1 13.0----29.86- 61.3 51.8----
2024-04-15 10:12 am W 12.0 13.0----29.86- 61.3 51.8----
2024-04-15 10:06 am W 11.1 12.0----29.86- 59.2 51.8----
2024-04-15 10:00 am W 8.0 11.1----29.86+0.07 58.5 51.6----
2024-04-15 09:54 am W 8.9 12.0----29.85- 58.6 51.6----
2024-04-15 09:48 am W 9.9 11.1----29.85- 58.5 51.6----
2024-04-15 09:42 am W 9.9 11.1----29.85- 58.1 51.6----
2024-04-15 09:36 am W 8.9 9.9----29.85- 58.1 51.6----
2024-04-15 09:30 am W 8.9 9.9----29.85- 58.1 51.6----
2024-04-15 09:24 am W 9.9 11.1----29.85- 58.5 51.4----
2024-04-15 09:18 am W 8.9 9.9----29.84- 58.3 51.4----
2024-04-15 09:12 am W 9.9 11.1----29.84- 58.3 51.4----
2024-04-15 09:06 am W 9.9 12.0----29.84- 58.1 51.4----
2024-04-15 09:00 am W 11.1 12.0----29.84+0.07 58.5 51.4----
2024-04-15 08:54 am W 11.1 12.0----29.84- 58.3 51.4----
2024-04-15 08:48 am W 9.9 11.1----29.83- 58.3 51.4----
2024-04-15 08:42 am W 8.0 8.0----29.83- 57.7 51.4----
2024-04-15 08:36 am W 5.1 7.0----29.83- 57.0 51.4----
2024-04-15 08:30 am W 5.1 6.0----29.83- 56.8 51.4----
2024-04-15 08:24 am W 6.0 7.0----29.83- 56.8 51.4----
2024-04-15 08:18 amWSW 6.0 7.0----29.83- 56.7 51.4----
2024-04-15 08:12 am W 7.0 7.0----29.82- 56.1 51.4----
2024-04-15 08:06 amWSW 7.0 8.0----29.82- 56.5 51.4----
2024-04-15 08:00 am W 6.0 7.0----29.81+0.05 56.1 51.4----
2024-04-15 07:54 am W 6.0 6.0----29.81- 56.8 51.4----
2024-04-15 07:48 am W 5.1 6.0----29.81- 57.0 51.4----
2024-04-15 07:42 am W 5.1 6.0----29.81- 57.4 51.4----
2024-04-15 07:36 am W 5.1 6.0----29.81- 57.6 51.6----
2024-04-15 07:30 am W 6.0 7.0----29.80- 58.8 51.6----
2024-04-15 07:24 am W 6.0 6.0----29.80- 57.9 51.6----
2024-04-15 07:18 am W 5.1 6.0----29.80- 57.6 51.6----
2024-04-15 07:12 amWSW 4.1 5.1----29.80- 57.6 51.6----
2024-04-15 07:06 am SW 4.1 5.1----29.79- 58.3 51.6----
2024-04-15 07:00 amSSW 5.1 6.0----29.79+0.04 57.9 51.6----
2024-04-15 06:54 amSSW 6.0 6.0----29.78- 58.5 51.6----
2024-04-15 06:48 amSSW 5.1 6.0----29.78- 59.0 51.6----
2024-04-15 06:42 amSSW 7.0 7.0----29.78- 59.2 51.6----
2024-04-15 06:36 amSSW 6.0 6.0----29.78- 58.6 51.6----
2024-04-15 06:30 amSSW 5.1 5.1----29.77- 58.6 51.6----
2024-04-15 06:24 am S 5.1 6.0----29.77- 58.1 51.6----
2024-04-15 06:18 amSSW 6.0 7.0----29.77- 57.6 51.6----
2024-04-15 06:12 amSSW 7.0 7.0----29.77- 59.9 51.6----
2024-04-15 06:06 amSSW 6.0 7.0----29.77- 59.4 51.6----
2024-04-15 06:00 amSSW 8.0 8.9----29.77+0.01 60.8 51.6----
2024-04-15 05:54 amSSW 8.9 8.9----29.77- 60.1 51.6----
2024-04-15 05:48 amSSW 8.9 8.9----29.77- 60.3 51.6----
2024-04-15 05:42 amSSW 8.0 8.0----29.76- 59.4 51.6----
2024-04-15 05:36 amSSW 8.0 8.9----29.76- 59.0 51.8----
2024-04-15 05:30 am S 8.0 8.9----29.76- 57.0 51.8----
2024-04-15 05:24 am S 8.0 8.9----29.76- 56.3 51.6----
2024-04-15 05:18 am S 8.9 8.9----29.76- 56.1 51.6----
2024-04-15 05:12 am S 7.0 8.0----29.76- 57.6 51.6----
2024-04-15 05:06 amSSW 7.0 8.0----29.76- 59.0 51.6----
2024-04-15 05:00 amSSW 7.0 8.0----29.76+0.00 59.0 51.6----
2024-04-15 04:54 am S 8.0 8.0----29.76- 57.7 51.6----
2024-04-15 04:48 am S 7.0 7.0----29.76- 57.0 51.6----
2024-04-15 04:42 am S 6.0 7.0----29.76- 57.6 51.6----
2024-04-15 04:36 am S 6.0 6.0----29.76- 58.6 51.6----
2024-04-15 04:30 am S 5.1 5.1----29.76- 58.6 51.6----
2024-04-15 04:24 am S 4.1 4.1----29.75- 59.2 51.6----
2024-04-15 04:18 amSSW 1.9 2.9----29.75- 59.2 51.6----
2024-04-15 04:12 am SW 2.9 2.9----29.75- 60.1 51.6----
2024-04-15 04:06 amWSW 2.9 4.1----29.75- 61.0 51.6----
2024-04-15 04:00 am SW 4.1 4.1----29.75-0.02 61.0 51.6----
2024-04-15 03:54 amWSW 1.9 2.9----29.75- 60.4 51.6----
2024-04-15 03:48 amWSW 2.9 2.9----29.75- 60.4 51.6----
2024-04-15 03:42 amWSW 2.9 4.1----29.75- 60.4 51.6----
2024-04-15 03:36 amWSW 2.9 2.9----29.75- 59.7 51.6----
2024-04-15 03:30 amWSW 2.9 2.9----29.75- 59.2 51.6----
2024-04-15 03:24 amWSW 1.9 2.9----29.75- 59.2 51.6----
2024-04-15 03:18 amWSW 2.9 2.9----29.75- 59.4 51.6----
2024-04-15 03:12 am W 2.9 4.1----29.75- 59.4 51.6----
2024-04-15 03:06 am W 4.1 4.1----29.75- 59.7 51.6----
2024-04-15 03:00 amWSW 4.1 4.1----29.75-0.01 59.7 51.6----
2024-04-15 02:54 am SW 4.1 4.1----29.75- 59.7 51.6----
2024-04-15 02:48 am SW 4.1 5.1----29.74- 59.7 51.6----
2024-04-15 02:42 amWSW 5.1 5.1----29.75- 59.7 51.6----
2024-04-15 02:36 amWSW 5.1 5.1----29.75- 59.9 51.6----
2024-04-15 02:30 amWSW 5.1 6.0----29.75- 59.4 51.6----
2024-04-15 02:24 amWSW 6.0 6.0----29.75- 58.8 51.6----
2024-04-15 02:18 amWSW 5.1 5.1----29.75- 58.3 51.6----
2024-04-15 02:12 am SW 6.0 6.0----29.75- 56.8 51.6----
2024-04-15 02:06 am SW 6.0 8.0----29.76- 56.3 51.6----
2024-04-15 02:00 am SW 8.0 8.9----29.76+0.05 56.7 51.6----
2024-04-15 01:54 amWSW 9.9 12.0----29.76- 58.3 51.6----
2024-04-15 01:48 am W 9.9 9.9----29.77- 57.7 51.6----
2024-04-15 01:42 am W 8.0 8.9----29.77- 58.1 51.6----
2024-04-15 01:36 amWSW 8.0 9.9----29.76- 58.3 51.6----
2024-04-15 01:30 amWSW 8.9 9.9----29.77- 58.3 51.6----
2024-04-15 01:24 amWSW 8.9 9.9----29.78- 57.6 51.6----
2024-04-15 01:18 amWSW 8.9 9.9----29.78- 57.0 51.6----
2024-04-15 01:12 amWSW 9.9 11.1----29.78- 57.0 51.6----
2024-04-15 01:06 amWSW 12.0 12.0----29.78- 57.2 51.6----
2024-04-15 01:00 amWSW 11.1 11.1----29.78-0.03 56.7 51.6----
2024-04-15 12:54 amWSW 8.0 8.0----29.77- 56.1 51.6----
2024-04-15 12:48 amWSW 7.0 8.0----29.77- 56.1 51.6----
2024-04-15 12:42 am W 6.0 8.0----29.77- 56.3 51.6----
2024-04-15 12:36 amWNW 8.0 9.9----29.77- 57.0 51.8----
2024-04-15 12:30 am W 8.9 9.9----29.77- 57.7 51.8----
2024-04-15 12:24 amWNW 9.9 12.0----29.76- 57.4 51.8----
2024-04-15 12:18 amWNW 9.9 14.0----29.76- 57.7 51.8----
2024-04-15 12:12 amWNW 14.0 15.9----29.77- 58.3 51.8----
2024-04-15 12:06 amWNW 14.0 15.0----29.77- 56.8 51.6----
2024-04-15 12:00 amWNW 15.0 15.9----29.77+0.05 56.8 51.8----
2024-04-14 11:54 pmWNW 15.0 17.1----29.77- 56.8 51.8----
2024-04-14 11:48 pmWNW 12.0 15.9----29.75- 58.6 51.8----
2024-04-14 11:42 pm W 12.0 14.0----29.74- 59.4 51.8----
2024-04-14 11:36 pm SW 12.0 13.0----29.72- 59.5 51.8----
2024-04-14 11:30 pm SW 8.9 14.0----29.72- 59.0 51.8----
2024-04-14 11:24 pm SW 12.0 13.0----29.72- 59.7 51.6----
2024-04-14 11:18 pm SW 8.0 12.0----29.72- 59.4 51.6----
2024-04-14 11:12 pm SW 13.0 17.1----29.72- 59.0 51.6----
2024-04-14 11:06 pm SW 15.9 18.1----29.72- 59.4 51.6----
2024-04-14 11:00 pm SW 17.1 20.0----29.71+0.02 59.5 51.6----
2024-04-14 10:54 pm SW 18.1 22.0----29.72- 59.7 51.6----
2024-04-14 10:48 pmSSW 20.0 25.1----29.72- 60.1 51.6----
2024-04-14 10:42 pm SW 19.0 21.0----29.73- 59.5 51.6----
2024-04-14 10:36 pm SW 17.1 20.0----29.74- 59.2 51.6----
2024-04-14 10:30 pm SW 18.1 19.0----29.76- 58.8 51.6----
2024-04-14 10:24 pm SW 15.9 17.1----29.76- 58.3 51.6----
2024-04-14 10:18 pm SW 14.0 15.9----29.78- 57.6 51.6----
2024-04-14 10:12 pmWSW 14.0 15.9----29.78- 59.5 51.6----
2024-04-14 10:06 pm W 12.0 14.0----29.79- 59.4 51.6----
2024-04-14 10:00 pmWNW 14.0 15.9----29.80+0.15 60.8 51.4----
2024-04-14 09:54 pmWNW 12.0 13.0----29.81- 58.3 51.6----
2024-04-14 09:48 pm NW 13.0 18.1----29.81- 60.4 51.6----
2024-04-14 09:42 pmWNW 17.1 19.0----29.81- 61.7 51.6----
2024-04-14 09:36 pmNNW 11.1 15.0----29.83- 58.3 51.6----
2024-04-14 09:30 pm N 7.0 12.0----29.83- 55.2 51.6----
2024-04-14 09:24 pmNNE 8.0 11.1----29.81- 53.8 51.6----
2024-04-14 09:18 pmNNE 9.9 17.1----29.79- 53.4 51.6----
2024-04-14 09:12 pm N 9.9 15.0----29.78- 57.0 51.6----
2024-04-14 09:06 pm N 2.9 5.1----29.75- 57.0 51.6----
2024-04-14 09:00 pm E 1.0 2.9----29.72+0.05 56.5 51.6----
2024-04-14 08:54 pm SE 2.9 7.0----29.71- 56.3 51.6----